Location: Wallasey
(53.4265°N, 3.0662°W)
Time: 19:54:27
(UTC+00:00)

XW-2B - Pass Details

Date: 15 October 2019
Orbit: 507 x 528 km, 97.5° (Epoch: 15 November)

Event Time Altitude Azimuth Distance (km) Brightness Sun altitude
Rises 06:43:16 0° 21° (NNE) 2,637 ? -9.0°
Reaches altitude 10° 06:45:33 10° 32° (NNE) 1,743 ? -8.6°
Maximum altitude 06:48:54 31° 96° (E) 925 ? -8.1°
Drops below altitude 10° 06:52:14 10° 159° (SSE) 1,724 ? -7.6°
Sets 06:54:29 0° 170° (S) 2,604 ? -7.3°
